Regional Weather Roundup
Issued by NWS

Home | Current Version | Previous Version | Graphics & Text | Print | Product List | Glossary On
Versions: 1 2 3 4 5 6 7 8 9 10 11 12 13 14 15 16 17 18 19 20 21 22 23 24 25 26 27 28 29 30 31 32 33 34 35 36 37 38 39 40 41 42 43 44 45 46 47 48 49 50
000
ASUS43 KIND 042109
RWRIN

WEATHER ROUNDUP FOR INDIANA
NATIONAL WEATHER SERVICE INDIANAPOLIS IN
500 PM EDT MON MAY 04 2015

NOTE: "FAIR" INDICATES FEW OR NO CLOUDS BELOW 12,000 FEET WITH NO
SIGNIFICANT WEATHER AND/OR OBSTRUCTIONS TO VISIBILITY.

* - STATION DOES NOT REPORT WEATHER SUCH AS PRECIPITATION OR FOG.

+ - STATION NOT QUALITY CONTROLLED BY THE NATIONAL WEATHER SERVICE.
    USE DATA WITH CAUTION...ESPECIALLY DEWPOINT AND RELATIVE
    HUMIDITY OBSERVATIONS.

INZ001>003-010>013-019-020-042200-
NORTHWEST INDIANA

CITY           SKY/WX    TMP DP  RH WIND       PRES   REMARKS
GARY /AIRPORT/ CLOUDY    63 N/A N/A E14       30.15R
KNOX *+        CLOUDY    70  46  43 SW3       30.13F
LA PORTE +     PTSUNNY   73  60  65 CALM      30.15S
MICHIGAN CITY+ CLOUDY    64  52  63 N8        30.15S
MONTICELLO +   CLOUDY    68  62  82 SW7       30.14S
VALPARAISO     CLOUDY    71  58  63 S6        30.14S

$$

LMZ046-743>745-042200-
SOUTHERN LAKE MICHIGAN

STATION/POSITION TIME  TEMP    WIND        PRES    WAVE
                       AIR SEA DIR/SP/G            HT
                 (UTC) (F)     (DEG/KT/KT) (MB)    (FT)
BURNS HARBOR     2100   56      70/ 12/ 15 1021.3R
MICHIGAN CITY    2100   55      30/ 12/ 12   N/A
5NW MICH CITY    2100   52 50   90/  6/  8   N/A     1

$$

INZ004-005-014>016-021>024-042200-
NORTH CENTRAL INDIANA

CITY           SKY/WX    TMP DP  RH WIND       PRES   REMARKS
ELKHART        PTSUNNY   73  55  53 W10       30.14S
GOSHEN         PTSUNNY   71  61  70 W10       30.13S
LOGANSPORT +   CLOUDY    68  59  73 S8        30.15F
PERU/GRISSOM   CLOUDY    70  62  76 SW8       30.14F
ROCHESTER +    CLOUDY    72  63  73 SW5       30.15F
SOUTH BEND     CLOUDY    71  57  61 NW5       30.14F
WARSAW +       LGT RAIN  68  61  77 W9        30.15S

$$

INZ006>009-017-018-025>027-042200-
NORTHEAST INDIANA

CITY           SKY/WX    TMP DP  RH WIND       PRES   REMARKS
ANGOLA *+      PTSUNNY   73  59  60 W10       30.12S
AUBURN +       PTSUNNY   72  59  64 SW8       30.15S
FORT WAYNE     CLOUDY    68  61  78 SW12      30.16F
HUNTINGTON +   CLOUDY    66  61  82 SW3       30.16S

$$

INZ028-029-035-036-043>045-051>053-042200-
WEST CENTRAL INDIANA

CITY           SKY/WX    TMP DP  RH WIND       PRES   REMARKS
CRAWFORDSVL +  CLOUDY    74  55  52 SW7       30.13F
GREENCASTLE +  PTSUNNY   77  54  44 SW6       30.14F
LAFAYETTE      CLOUDY    70  62  76 E3        30.12F
TERRE HAUTE    PTSUNNY   78  58  49 SW8       30.12F

$$

INZ030>032-037>040-046>048-054>057-064-065-042200-
CENTRAL INDIANA

CITY           SKY/WX    TMP DP  RH WIND       PRES   REMARKS
CP ATTERBURY + CLOUDY    72  59  64 CALM      30.16F
COLUMBUS       PTSUNNY   72  57  60 CALM      30.17S
FRANKFORT +    CLOUDY    74  62  65 SW6       30.16F
GREENWOOD *+   PTSUNNY   75  57  53 S10       30.16F
INDIANAPOLIS   PTSUNNY   75  59  57 S12       30.13F
-EAGLE CREEK   PTSUNNY   76  60  57 S9        30.13F
KOKOMO *+      CLOUDY    72  63  73 SW10      30.15F
MARION +       CLOUDY    68  59  73 SW9       30.17S
MT COMFORT *+  CLOUDY    73  48  40 SW10      30.16S
SHELBYVILLE    CLOUDY    75  58  55 SW10      30.16S
ZIONSVILLE +   PTSUNNY   73  60  65 CALM      30.15F

$$

INZ033-034-041-042-049-050-058-059-042200-
EAST CENTRAL INDIANA

CITY           SKY/WX    TMP DP  RH WIND       PRES   REMARKS
MUNCIE         PTSUNNY   71  58  63 W8        30.16F

$$

INZ060-061-067>069-081>083-085>088-042200-
SOUTHWEST INDIANA

CITY           SKY/WX    TMP DP  RH WIND       PRES   REMARKS
EVANSVILLE     PTSUNNY   81  56  42 SW13      30.14F
HUNTINGBURG *+ PTSUNNY   81  57  44 SW15      30.15S
WASHINGTON +   PTSUNNY   81  52  36 SW12      30.13S

$$

INZ062-063-066-070>080-084-089>092-042200-
SOUTH CENTRAL AND SOUTHEAST INDIANA

CITY           SKY/WX    TMP DP  RH WIND       PRES   REMARKS
BEDFORD +      CLOUDY    81  55  41 S8        30.15F
BLOOMINGTON    PTSUNNY   79  55  43 SW7       30.14F
MADISON *+     CLOUDY    79  52  38 SW6       30.18S
NORTH VERNON + CLOUDY    75  63  64 CALM      30.17S
SEYMOUR +      CLOUDY    77  59  53 W6        30.15S

$$




USA.gov is the U.S. government's official web portal to all federal, state and local government web resources and services.